Content
SEND FEEDBACK

Daily
Averages
Monthly
Summary
Philippines

QUEZON CITY, PHILIPPINES


Home > Asia > Philippines
Elevation: 46 meters     Latitude: 14 39N     Longitude: 121 03E

WEATHER
 
SELECT A DAY
Number of Records: 172,513;   Date Range: 7/1/96 - 7/29/14
 
SHARE

PRINT THIS DATA

[ ← Previous Day ]
WEATHER ALMANAC - 8 MAY, 2013
[ Next Day → ]
[ °F ]   °C
Weather ElementAverageHighLow
Temperature30.2 °C36 °C (3:00 pm) (8:00 pm)
Dewpoint22.7 °C25 °C (6:00 pm) (7:00 pm)
Humidity61.9 %79 % (6:00 am)40 % (2:00 pm)
Barometer1008.5 hPa1010.2 hPa (8:00 am)1006.1 hPa (3:00 pm)
Wind Speed12.1 km/h18.5 km/h (6:00 pm)
Weather ElementAverage
Visibility9.8 km
Wind DirectionESE (108.1 °)

Weather ElementTotal
Precipitation---
Heating Degree Days9.2 (Base 18.3)
Averaged from 31 records on 8 May, 2013
WEATHER CONDITIONS BREAKOUT
WIND DIRECTION BREAKOUT
WEATHER BY HOUR - 8 MAY, 2013
[ °F ]   °C
Local TimeTemperatureDewpointHumidityBarometerVisibilityWind DirectionWind SpeedGust SpeedPrecipitationEventsConditions
1:00 AM30 °C24 °C70 %1008.1 hPa10 kmESE (120°)9.3 km/hPartly Cloudy
2:00 AM29.4 °C24.4 °C67 %1008.5 hPa9.7 kmESE (120°)7.2 km/hHaze
2:00 AM29 °C24 °C74 %1008.1 hPa10 kmESE (120°)7.4 km/hPartly Cloudy
3:00 AM29 °C24 °C74 %1007.1 hPa10 kmESE (120°)9.3 km/hPartly Cloudy
4:00 AM29 °C24 °C74 %1007.1 hPa10 kmESE (110°)5.6 km/hPartly Cloudy
5:00 AM28.3 °C24.4 °C74 %1008.1 hPa9.7 kmESE (120°)3.5 km/hHaze
5:00 AM29 °C24 °C74 %1008.1 hPa10 kmESE (120°)5.6 km/hPartly Cloudy
6:00 AM28 °C24 °C79 %1008.1 hPa10 kmEast (100°)7.4 km/hPartly Cloudy
7:00 AM30 °C24 °C70 %1009.1 hPa10 kmESE (110°)9.3 km/hPartly Cloudy
8:00 AM31.1 °C23.3 °C54 %1010.2 hPa9.7 kmEast (100°)10.8 km/hHaze
8:00 AM31 °C23 °C62 %1010.2 hPa10 kmESE (110°)9.3 km/hScattered Clouds
9:00 AM32 °C24 °C62 %1010.2 hPa10 kmEast (100°)9.3 km/hScattered Clouds
10:00 AM33 °C23 °C55 %1010.2 hPa10 kmVariable9.3 km/hScattered Clouds
11:00 AM34.4 °C24.4 °C46 %1009.8 hPa9.7 kmSE (130°)14.3 km/hPartly Cloudy
11:00 AM35 °C24 °C53 %1010.2 hPa10 kmVariable13 km/hScattered Clouds
12:00 PM34 °C24 °C56 %1009.1 hPa10 kmVariable13 km/hScattered Clouds
1:00 PM35 °C24 °C53 %1008.1 hPa10 kmSE (130°)14.8 km/hScattered Clouds
2:00 PM35.6 °C23.3 °C40 %1007.5 hPa9.7 kmSE (130°)14.3 km/hPartly Cloudy
2:00 PM35 °C24 °C53 %1007.1 hPa10 kmSE (130°)14.8 km/hScattered Clouds
3:00 PM36 °C24 °C50 %1006.1 hPa10 kmSE (130°)14.8 km/hPartly Cloudy
4:00 PM35 °C24 °C53 %1006.1 hPa10 kmSE (140°)16.7 km/hScattered Clouds
5:00 PM33.9 °C24.4 °C49 %1006.4 hPa9.7 kmSE (130°)14.3 km/hPartly Cloudy
5:00 PM34 °C24 °C56 %1006.1 hPa10 kmSE (130°)16.7 km/hScattered Clouds
6:00 PM33 °C25 °C63 %1007.1 hPa10 kmSE (130°)18.5 km/hScattered Clouds
7:00 PM32 °C24 °C62 %1007.1 hPa10 kmESE (110°)14.8 km/hScattered Clouds
8:00 PM31.7 °C24.4 °C57 %1008.5 hPa9.7 kmESE (120°)14.3 km/hHaze
8:00 PM-17.8 °C-17.8 °C1008.1 hPa10 kmESE (120°)16.7 km/hPartly Cloudy
9:00 PM31 °C24 °C66 %1009.1 hPa10 kmESE (110°)13 km/hPartly Cloudy
10:00 PM30 °C24 °C70 %1009.1 hPa10 kmESE (120°)16.7 km/hPartly Cloudy
11:00 PM30 °C24.4 °C66 %1009.8 hPa9.7 kmESE (120°)14.3 km/hHaze
11:00 PM30 °C25 °C74 %1009.1 hPa10 kmESE (120°)14.8 km/hPartly Cloudy
Hourly data recorded from RPLL, located 0 kilometers away from Quezon City, Philippines







STORIES FROM OUR PARTNERS